STARLINK-35145

Last updated on Mon Oct 20 2025 00:02:06 GMT+0000 (Coordinated Universal Time)

1 65685U 25212K 25292.25002315 -.02055323 00000+0 -64863-1 0 9999 2 65685 53.1589 282.9385 0001161 79.9976 307.4543 15.35575523 5514
UTC large
Height (km)
Speed (km/s)
/
Latitude / Longitude
Inclination (degrees)
Orbital Period (minutes)
Azimuth
Elevation
Range (km)
Doppler Factor

Next 0 passes for location: London (51.5072 / 0.1276)

Sorry there are no passes over London.